QPF
0.00 0.00 0.00 0.00 0.00 0.00 0.00 0.00 0.00 0.00 0.00 0.00 0.00 0.00 0.00 0.00 0.00 0.00 0.00 0.00 0.00 0.00 0.00 0.00 0.00 0.00 0.00 0.00 0.00 0.00 0.00 0.00 0.00 0.00 0.00 0.00 0.00 0.00 0.00 0.00 0.00 0.00 0.00
0.00 0.00 0.00 0.00 0.00 0.00 0.00 0.00 0.00 0.00 0.00 0.00 0.00 0.00 0.00 0.00 0.00 0.00 0.00 0.00 0.00 0.00 0.00 0.00 0.00 0.00 0.00 0.00 0.00 0.00 0.00 0.00 0.00 0.00 0.00 0.00 0.00 0.00 0.00 0.00 0.00 0.00 0.00
0.00 0.00 0.00 0.00 0.00 0.00 0.00 0.00 0.00 0.00 0.00 0.00 0.00 0.00 0.00 0.00 0.00 0.00 0.00 0.00 0.00 0.00 0.00 0.00 0.00 0.00 0.00 0.00 0.00 0.00 0.00 0.00 0.00 0.00 0.00 0.00 0.00 0.00 0.00 0.00 0.00 0.00 0.00
0.00 0.00 0.00 0.00 0.00 0.00 0.00 0.00 0.00 0.00 0.00 0.00 0.00 0.00 0.00 0.00 0.00 0.00 0.00 0.00 0.00 0.00 0.00 0.00 0.00 0.00 0.00 0.00 0.00 0.00 0.00 0.00 0.00 0.00 0.00 0.00 0.00 0.00 0.00 0.00 0.00 0.00 0.00
0.00 0.00 0.00 0.00 0.00 0.00 0.00 0.00 0.00 0.00 0.00 0.00 0.00 0.00 0.00 0.00 0.00 0.00 0.00 0.00 0.00 0.00 0.00 0.00 0.00 0.00 0.00 0.00 0.00 0.00 0.00 0.00 0.00 0.00 0.00 0.00 0.00 0.00 0.00 0.00 0.00 0.00 0.00
0.00 0.00 0.00 0.00 0.00 0.00 0.00 0.00 0.00 0.00 0.00 0.00 0.00 0.00 0.00 0.00 0.00 0.00 0.00 0.00 0.00 0.00 0.00 0.00 0.00 0.00 0.00 0.00 0.00 0.00 0.00 0.00 0.00 0.00 0.00 0.00 0.00 0.00 0.00 0.00 0.00 0.00 0.00
0.00 0.00 0.00 0.00 0.00 0.00 0.00 0.00 0.00 0.00 0.00 0.00 0.00 0.00 0.00 0.00 0.00 0.00 0.00 0.00 0.00 0.00 0.00 0.00 0.00 0.00 0.00 0.00 0.00 0.00 0.00 0.00 0.00 0.00 0.00 0.00 0.00 0.00 0.00 0.00 0.00 0.00 0.00
0.00 0.00 0.00 0.00 0.00 0.00 0.00 0.00 0.00 0.00 0.00 0.00 0.00 0.00 0.00 0.00 0.00 0.00 0.00 0.00 0.00 0.00 0.00 0.00 0.00 0.00 0.00 0.00 0.00 0.00 0.00 0.00 0.00 0.00 0.00 0.00 0.00 0.00 0.00 0.00 0.00 0.00 0.00
0.00 0.00 0.00 0.00 0.00 0.00 0.00 0.00 0.00 0.00 0.00 0.00 0.00 0.00 0.00 0.00 0.00 0.00 0.00 0.00 0.00 0.00 0.00 0.00 0.00 0.00 0.00 0.00 0.00 0.00 0.00 0.00 0.00 0.00 0.00 0.00 0.00 0.00 0.00 0.00 0.00 0.00 0.00
0.00 0.00 0.00 0.00 0.00 0.00 0.00 0.00 0.00 0.00 0.00 0.00 0.00 0.00 0.00 0.00 0.00 0.00 0.00 0.00 0.00 0.00 0.00 0.00 0.00 0.00 0.00 0.00 0.00 0.00 0.00 0.00 0.00 0.00 0.00 0.00 0.00 0.00 0.00 0.00 0.00 0.00 0.00
0.00 0.00 0.00 0.00 0.00 0.00 0.00 0.00 0.00 0.00 0.00 0.00 0.00 0.00 0.00 0.00 0.00 0.00 0.00 0.00 0.00 0.00 0.00 0.00 0.00 0.00 0.00 0.00 0.00 0.00 0.00 0.00 0.00 0.00 0.00 0.00 0.00 0.00 0.00 0.00 0.00 0.00 0.00
0.00 0.00 0.00 0.00 0.00 0.00 0.00 0.00 0.00 0.00 0.00 0.00 0.00 0.00 0.00 0.00 0.00 0.00 0.00 0.00 0.00 0.00 0.00 0.00 0.00 0.00 0.00 0.00 0.00 0.00 0.00 0.00 0.00 0.00 0.00 0.00 0.00 0.00 0.00 0.00 0.00 0.00 0.00
0.00 0.00 0.00 0.00 0.00 0.00 0.00 0.00 0.00 0.00 0.00 0.00 0.00 0.00 0.00 0.00 0.00 0.00 0.00 0.00 0.00 0.00 0.00 0.00 0.00 0.00 0.00 0.00 0.00 0.00 0.00 0.00 0.00 0.00 0.00 0.00 0.00 0.00 0.00 0.00 0.00 0.00 0.00
0.00 0.00 0.00 0.00 0.00 0.00 0.00 0.00 0.00 0.00 0.00 0.00 0.00 0.00 0.00 0.00 0.00 0.00 0.00 0.00 0.00 0.00 0.00 0.00 0.00 0.00 0.00 0.00 0.00 0.00 0.00 0.00 0.00 0.00 0.00 0.00 0.00 0.00 0.00 0.00 0.00 0.00 0.00
0.00 0.00 0.00 0.00 0.00 0.00 0.00 0.00 0.00 0.00 0.00 0.00 0.00 0.00 0.00 0.00 0.00 0.00 0.00 0.00 0.00 0.00 0.00 0.00 0.00 0.00 0.00 0.00 0.00 0.00 0.00 0.00 0.00 0.00 0.00 0.00 0.00 0.00 0.00 0.00 0.00 0.00 0.00
0.00 0.00 0.00 0.00 0.00 0.00 0.00 0.00 0.00 0.00 0.00 0.00 0.00 0.00 0.00 0.00 0.00 0.00 0.00 0.00 0.00 0.00 0.00 0.00 0.00 0.00 0.00 0.00 0.00 0.00 0.00 0.00 0.00 0.00 0.00 0.00 0.00 0.00 0.00 0.00 0.00 0.00 0.00
0.00 0.00 0.00 0.00 0.00 0.00 0.00 0.00 0.00 0.00 0.00 0.00 0.00 0.00 0.00 0.00 0.00 0.00 0.00 0.01 0.00 0.00 0.00 0.00 0.00 0.00 0.00 0.00 0.00 0.00 0.00 0.00 0.00 0.00 0.00 0.00 0.00 0.00 0.00 0.00 0.00 0.00 0.00
0.00 0.00 0.00 0.00 0.00 0.00 0.00 0.00 0.00 0.00 0.00 0.00 0.00 0.00 0.00 0.00 0.00 0.00 0.01 0.01 0.00 0.00 0.00 0.00 0.00 0.00 0.00 0.00 0.00 0.00 0.00 0.00 0.00 0.00 0.00 0.00 0.00 0.00 0.00 0.00 0.00 0.00 0.00
0.00 0.00 0.00 0.00 0.00 0.00 0.00 0.00 0.00 0.00 0.00 0.00 0.00 0.00 0.00 0.01 0.01 0.01 0.01 0.00 0.00 0.00 0.00 0.00 0.00 0.00 0.00 0.00 0.00 0.00 0.00 0.00 0.00 0.00 0.00 0.00 0.00 0.00 0.00 0.00 0.00 0.00 0.00
0.00 0.00 0.00 0.00 0.00 0.00 0.00 0.00 0.00 0.00 0.00 0.00 0.00 0.00 0.00 0.00 0.00 0.00 0.00 0.00 0.00 0.00 0.00 0.00 0.00 0.00 0.00 0.00 0.00 0.00 0.00 0.00 0.00 0.00 0.00 0.00 0.00 0.00 0.00 0.00 0.00 0.00 0.00
0.00 0.00 0.00 0.00 0.00 0.00 0.00 0.00 0.00 0.00 0.00 0.00 0.00 0.00 0.00 0.00 0.00 0.00 0.00 0.00 0.00 0.00 0.00 0.00 0.00 0.00 0.00 0.00 0.00 0.00 0.00 0.00 0.00 0.00 0.00 0.00 0.00 0.00 0.00 0.00 0.00 0.00 0.00
0.00 0.00 0.00 0.00 0.00 0.00 0.00 0.00 0.00 0.00 0.00 0.00 0.00 0.00 0.00 0.00 0.00 0.00 0.00 0.00 0.00 0.00 0.00 0.00 0.00 0.00 0.00 0.00 0.00 0.00 0.00 0.00 0.00 0.00 0.00 0.00 0.00 0.00 0.00 0.00 0.00 0.00 0.00
0.00 0.00 0.00 0.00 0.00 0.00 0.00 0.00 0.00 0.00 0.00 0.00 0.00 0.00 0.00 0.00 0.00 0.00 0.00 0.00 0.00 0.00 0.00 0.00 0.00 0.00 0.00 0.00 0.00 0.00 0.00 0.00 0.00 0.00 0.00 0.00 0.00 0.00 0.00 0.00 0.00 0.00 0.00
0.00 0.00 0.00 0.00 0.00 0.00 0.00 0.00 0.00 0.00 0.00 0.00 0.00 0.00 0.00 0.00 0.00 0.00 0.00 0.00 0.00 0.00 0.00 0.00 0.00 0.00 0.00 0.00 0.00 0.00 0.00 0.00 0.00 0.00 0.00 0.00 0.00 0.00 0.00 0.00 0.00 0.00 0.00
0.00 0.00 0.00 0.00 0.00 0.00 0.00 0.00 0.00 0.00 0.00 0.00 0.00 0.00 0.00 0.00 0.00 0.00 0.00 0.00 0.00 0.00 0.00 0.00 0.00 0.00 0.00 0.00 0.00 0.00 0.00 0.00 0.00 0.00 0.00 0.00 0.00 0.00 0.00 0.00 0.00 0.00 0.00
0.00 0.00 0.00 0.00 0.00 0.00 0.00 0.00 0.00 0.00 0.00 0.00 0.00 0.00 0.00 0.00 0.00 0.00 0.00 0.00 0.00 0.00 0.00 0.00 0.00 0.00 0.00 0.00 0.00 0.00 0.00 0.00 0.00 0.00 0.00 0.00 0.00 0.00 0.00 0.00 0.00 0.00 0.00
MSLP
1007.29 1006.85 1006.46 1006.57 1007.13 1007.01 1007.17 1007.52 1007.80 1008.24 1008.91 1009.79 1010.60 1011.69 1012.33 1013.13 1014.03 1014.51 1015.10 1015.86 1016.81 1017.85 1018.42 1019.23 1019.83 1020.51 1021.31 1021.87 1022.28 1022.82 1023.48 1024.25 1024.89 1024.76 1024.50 1024.17 1024.25 1024.17 1023.89 1023.97 1023.84 1023.42 1023.29
1006.93 1006.52 1006.34 1006.45 1006.70 1006.96 1006.68 1006.76 1007.42 1007.62 1008.01 1008.47 1009.40 1010.32 1011.48 1012.03 1012.92 1013.34 1014.02 1014.06 1014.86 1016.27 1017.29 1018.35 1019.07 1019.91 1020.68 1021.39 1021.99 1022.65 1023.15 1023.86 1024.52 1024.89 1024.62 1024.43 1024.36 1024.11 1024.26 1024.23 1023.99 1023.13 1022.69
1006.96 1006.42 1006.19 1006.05 1006.07 1006.08 1005.61 1006.01 1006.37 1007.21 1007.68 1008.06 1008.36 1008.72 1009.85 1010.97 1011.86 1012.55 1012.57 1013.13 1013.48 1014.35 1015.72 1016.82 1017.71 1018.84 1019.99 1020.51 1021.41 1022.15 1022.62 1023.08 1023.75 1024.27 1024.12 1023.71 1023.62 1023.80 1023.63 1023.11 1022.60 1022.36 1022.29
1007.39 1006.69 1006.27 1005.88 1005.35 1005.30 1005.32 1004.98 1005.57 1005.73 1006.14 1006.85 1007.12 1007.44 1007.60 1009.18 1010.09 1011.68 1011.89 1012.32 1012.83 1013.47 1014.45 1015.70 1016.62 1017.20 1018.09 1019.10 1020.24 1021.04 1021.77 1022.65 1023.00 1023.21 1023.44 1023.51 1022.89 1022.55 1022.11 1022.07 1021.91 1021.40 1021.41
1007.71 1007.02 1006.30 1005.50 1004.84 1004.52 1004.43 1004.29 1004.85 1005.17 1005.58 1005.96 1005.97 1006.61 1006.70 1007.58 1008.40 1009.82 1010.56 1010.94 1011.70 1012.79 1013.79 1014.63 1015.52 1016.14 1016.80 1017.57 1018.74 1019.94 1020.98 1021.70 1022.07 1022.27 1022.36 1021.98 1021.89 1021.34 1021.03 1021.42 1021.03 1020.90 1020.70
1008.04 1007.45 1006.73 1005.72 1004.77 1004.31 1004.24 1003.97 1004.02 1004.14 1004.88 1005.25 1005.46 1005.40 1006.07 1006.25 1006.93 1008.11 1009.28 1009.43 1010.29 1011.46 1012.78 1014.11 1014.94 1015.58 1016.04 1016.82 1017.75 1018.40 1019.18 1020.24 1020.89 1021.14 1021.03 1020.73 1020.84 1020.63 1020.62 1020.77 1020.85 1020.21 1019.74
1008.60 1007.80 1007.10 1006.60 1005.20 1004.14 1003.64 1003.27 1003.48 1003.20 1003.82 1004.01 1004.47 1004.97 1004.71 1005.43 1006.14 1007.17 1008.06 1008.46 1009.19 1010.04 1011.08 1012.38 1013.67 1014.47 1015.22 1016.10 1016.96 1017.65 1018.15 1018.83 1019.39 1019.28 1019.37 1019.69 1020.07 1019.71 1019.91 1019.79 1020.05 1020.03 1020.03
1008.25 1007.46 1006.96 1006.36 1005.11 1004.26 1003.51 1003.55 1003.03 1003.03 1002.97 1003.01 1003.56 1004.15 1004.13 1004.41 1005.10 1005.87 1007.09 1007.55 1008.06 1009.19 1010.07 1010.74 1011.67 1012.80 1013.91 1015.03 1016.16 1017.22 1017.38 1017.73 1017.86 1018.10 1017.83 1019.07 1019.44 1019.31 1019.19 1018.96 1019.08 1019.43 1019.43
1007.99 1007.49 1006.82 1005.59 1005.04 1004.20 1003.50 1003.42 1002.91 1003.03 1002.74 1002.63 1002.94 1003.01 1003.35 1004.09 1004.22 1004.98 1005.97 1007.29 1007.82 1008.39 1009.69 1010.73 1011.35 1012.30 1012.81 1013.87 1015.09 1016.55 1016.93 1017.23 1017.29 1016.96 1016.92 1017.67 1018.14 1018.33 1018.60 1018.53 1018.89 1019.20 1018.59
1007.66 1006.76 1006.14 1005.64 1005.14 1004.24 1003.87 1003.57 1003.08 1003.07 1002.80 1003.07 1002.79 1002.66 1002.61 1003.01 1003.77 1004.50 1005.22 1006.52 1007.51 1008.35 1009.25 1010.15 1010.93 1011.13 1012.01 1013.27 1014.69 1015.90 1016.71 1016.64 1016.53 1016.34 1016.58 1017.36 1018.03 1018.34 1018.35 1018.21 1018.50 1019.02 1018.78
1007.75 1007.17 1006.36 1005.71 1005.28 1003.99 1003.15 1003.20 1003.24 1003.08 1002.12 1002.64 1002.30 1002.65 1002.78 1003.07 1002.72 1003.64 1004.51 1006.06 1006.58 1007.59 1008.45 1009.44 1010.28 1010.60 1011.35 1012.89 1014.09 1014.88 1015.62 1016.36 1016.30 1015.91 1016.61 1017.30 1017.76 1017.87 1017.82 1017.70 1017.79 1018.13 1017.95
1007.61 1007.37 1006.18 1005.13 1004.35 1003.52 1002.84 1002.26 1002.48 1002.66 1002.62 1001.66 1002.25 1002.71 1003.10 1002.64 1002.30 1002.65 1003.64 1005.35 1006.33 1006.79 1007.34 1008.62 1009.49 1010.02 1011.02 1012.09 1013.10 1014.20 1015.04 1015.41 1016.07 1016.35 1016.92 1017.21 1017.37 1017.32 1017.09 1017.15 1017.04 1017.03 1016.90
1007.99 1006.83 1006.00 1005.25 1004.44 1002.82 1002.17 1002.06 1001.63 1001.69 1002.17 1002.03 1001.53 1001.82 1002.25 1002.04 1002.25 1002.20 1002.69 1004.12 1005.22 1005.99 1007.03 1008.19 1008.89 1009.89 1010.85 1011.62 1012.52 1013.40 1013.89 1015.18 1015.37 1016.18 1016.49 1016.76 1016.87 1016.78 1016.46 1016.37 1016.42 1016.30 1016.37
1008.10 1007.09 1006.05 1004.91 1003.73 1002.26 1001.43 1001.24 1001.11 1000.39 1000.51 1001.05 1001.23 1000.70 1000.95 1001.59 1001.88 1001.82 1001.96 1002.68 1003.95 1005.33 1006.70 1008.13 1008.90 1009.46 1009.73 1011.49 1012.13 1013.19 1014.07 1014.66 1015.01 1015.31 1015.99 1016.18 1016.42 1016.30 1016.13 1016.29 1016.08 1015.90 1015.63
1007.65 1006.47 1005.36 1004.36 1003.23 1001.66 1000.43 999.91 999.81 999.01 998.67 998.89 999.34 1000.01 1000.13 1000.28 1000.37 1000.92 1001.21 1001.75 1003.06 1004.35 1005.77 1007.45 1008.59 1009.62 1010.27 1011.24 1012.09 1013.22 1013.76 1014.65 1014.80 1015.23 1015.70 1015.81 1016.04 1016.20 1016.26 1015.95 1015.53 1015.47 1015.28
1006.77 1005.75 1004.80 1003.90 1002.68 1001.45 1000.16 998.67 998.27 997.97 997.58 997.59 998.01 998.53 998.94 999.19 999.64 1000.26 1000.50 1001.47 1002.82 1003.61 1005.10 1006.73 1008.35 1009.22 1009.91 1010.81 1012.50 1013.51 1013.93 1014.25 1014.53 1015.22 1015.54 1015.75 1015.58 1015.78 1016.15 1016.00 1015.68 1015.52 1014.58
1006.33 1005.16 1004.15 1003.17 1002.04 1000.97 1000.08 998.24 997.38 996.97 996.87 996.92 996.83 997.62 997.99 998.26 998.74 999.18 999.67 1000.30 1001.87 1003.60 1004.45 1005.91 1007.88 1008.96 1009.58 1010.30 1011.57 1012.73 1013.31 1013.91 1014.78 1015.06 1015.44 1015.43 1015.39 1015.34 1015.52 1015.63 1015.61 1015.02 1014.13
1005.33 1004.37 1003.52 1002.51 1001.58 1000.51 999.43 998.11 997.01 996.72 996.42 995.85 996.00 996.62 997.12 997.64 998.14 998.66 998.68 1000.06 1001.07 1002.51 1004.54 1005.43 1006.99 1008.19 1009.41 1010.00 1010.93 1012.15 1012.98 1013.53 1014.53 1015.02 1015.44 1015.55 1015.43 1015.37 1015.42 1015.21 1015.01 1014.38 1013.75
1004.02 1003.05 1002.19 1001.17 1000.32 999.46 998.40 997.31 996.12 995.85 995.43 995.44 996.13 996.08 996.10 997.09 997.69 997.99 997.83 998.73 1000.07 1002.03 1003.93 1005.18 1006.59 1008.33 1009.32 1010.19 1010.85 1011.66 1012.43 1013.23 1013.93 1014.69 1015.19 1015.09 1015.34 1015.74 1015.46 1014.89 1014.36 1013.66 1013.23
1002.43 1001.53 1000.78 1000.05 999.22 998.29 997.51 996.42 995.30 995.32 995.40 995.38 995.22 995.25 996.08 997.04 997.47 997.61 997.75 999.11 1001.15 1002.37 1003.93 1005.33 1006.61 1008.39 1009.56 1010.44 1011.11 1011.90 1012.44 1013.12 1013.49 1013.89 1014.32 1014.69 1014.86 1015.17 1014.83 1014.21 1013.86 1013.14 1012.39
1000.97 999.94 998.97 998.29 997.43 996.61 995.99 995.09 994.79 994.90 995.11 995.15 995.10 995.39 995.87 996.32 997.19 997.83 998.53 1000.25 1001.92 1003.34 1004.46 1005.52 1006.99 1008.41 1010.01 1010.83 1011.16 1012.04 1012.49 1012.68 1012.84 1013.55 1013.94 1014.26 1014.38 1014.39 1013.74 1013.36 1013.00 1012.18 1011.19
999.30 997.92 996.82 996.09 995.57 995.15 994.52 994.35 994.47 994.65 994.79 994.91 995.07 995.24 995.73 996.86 998.15 999.22 1000.37 1001.60 1002.70 1004.27 1005.31 1006.27 1007.89 1008.76 1010.25 1010.65 1011.11 1012.05 1012.32 1012.80 1013.14 1013.41 1013.68 1013.84 1013.45 1013.09 1012.82 1012.51 1011.90 1011.24 1010.61
997.83 996.37 994.79 994.15 994.20 994.05 994.03 994.14 994.33 994.58 994.80 995.09 995.50 996.14 997.55 998.48 999.59 1000.67 1001.73 1002.89 1004.02 1005.52 1006.39 1007.31 1008.35 1009.26 1010.31 1010.93 1011.21 1011.57 1011.96 1012.65 1012.40 1012.88 1013.27 1012.83 1012.57 1012.37 1012.02 1011.52 1010.97 1010.33 1009.83
997.53 996.31 995.29 994.66 994.41 994.39 994.44 994.62 994.76 995.01 995.42 996.31 997.08 998.05 998.93 999.68 1000.61 1001.98 1003.01 1004.18 1005.27 1006.75 1007.54 1008.26 1008.88 1009.43 1010.41 1010.83 1010.91 1011.29 1011.88 1012.18 1012.39 1012.30 1012.08 1011.96 1011.91 1011.37 1010.83 1010.43 1010.09 1009.72 1009.14
998.20 997.30 996.62 996.19 995.91 995.81 995.79 995.91 996.15 996.59 997.16 997.77 998.56 999.27 1000.08 1001.03 1001.95 1003.09 1004.04 1005.25 1006.63 1007.71 1008.49 1009.08 1009.42 1009.54 1009.69 1010.12 1010.82 1011.33 1011.45 1011.23 1011.02 1010.92 1011.05 1010.99 1010.61 1010.04 1009.63 1009.56 1009.36 1008.95 1008.24
999.43 998.73 998.19 997.79 997.58 997.48 997.52 997.72 998.07 998.46 998.93 999.51 1000.14 1000.85 1001.55 1002.33 1003.29 1004.26 1005.51 1006.59 1007.64 1008.39 1008.67 1008.81 1009.05 1009.47 1009.91 1010.30 1010.52 1010.54 1010.40 1010.09 1009.87 1009.68 1009.60 1009.30 1008.89 1008.60 1008.71 1008.73 1008.47 1008.12 1007.37
Thickness
5573 5580 5584 5582 5576 5577 5576 5574 5574 5569 5565 5558 5551 5543 5540 5535 5529 5525 5520 5513 5506 5497 5493 5487 5483 5478 5472 5468 5465 5461 5457 5451 5443 5443 5444 5443 5438 5437 5436 5433 5433 5435 5434
5560 5564 5567 5568 5562 5560 5563 5562 5557 5557 5553 5549 5540 5533 5526 5521 5517 5515 5509 5509 5505 5493 5484 5476 5471 5466 5460 5455 5451 5446 5442 5437 5432 5426 5428 5427 5422 5423 5421 5419 5419 5424 5423
5537 5543 5547 5549 5550 5552 5556 5553 5550 5541 5538 5533 5529 5528 5520 5512 5505 5500 5501 5496 5495 5490 5479 5471 5465 5457 5448 5445 5438 5432 5428 5425 5419 5413 5412 5414 5413 5409 5409 5412 5415 5414 5412
5518 5521 5527 5531 5536 5537 5536 5538 5536 5534 5531 5525 5521 5519 5520 5507 5500 5488 5488 5484 5480 5476 5470 5462 5455 5453 5446 5438 5429 5422 5416 5407 5406 5404 5399 5399 5402 5401 5404 5405 5404 5404 5402
5492 5500 5509 5515 5521 5524 5523 5525 5524 5524 5516 5512 5510 5506 5507 5502 5496 5485 5480 5475 5471 5463 5458 5453 5447 5443 5438 5432 5422 5411 5402 5395 5393 5392 5391 5394 5392 5393 5395 5390 5393 5392 5391
5463 5471 5480 5489 5497 5502 5503 5509 5510 5510 5500 5496 5494 5497 5493 5493 5490 5480 5470 5470 5464 5455 5446 5437 5431 5427 5425 5419 5411 5404 5397 5387 5380 5380 5382 5384 5380 5380 5377 5376 5375 5379 5382
5430 5441 5448 5454 5468 5480 5483 5488 5490 5493 5487 5485 5481 5477 5481 5478 5476 5467 5461 5459 5455 5449 5441 5432 5422 5417 5410 5404 5396 5390 5387 5380 5376 5378 5373 5369 5367 5367 5364 5365 5362 5361 5357
5412 5421 5427 5432 5444 5451 5458 5461 5467 5468 5470 5472 5468 5463 5465 5466 5463 5458 5448 5445 5443 5436 5430 5425 5418 5409 5401 5392 5382 5373 5372 5369 5368 5369 5370 5354 5350 5349 5348 5350 5348 5343 5338
5388 5397 5404 5413 5420 5430 5436 5439 5443 5443 5448 5452 5452 5452 5451 5448 5449 5443 5435 5426 5423 5421 5411 5404 5401 5393 5389 5380 5370 5356 5353 5351 5352 5355 5355 5346 5339 5336 5330 5330 5321 5315 5319
5366 5375 5381 5384 5390 5402 5405 5408 5414 5416 5422 5424 5429 5434 5436 5436 5429 5424 5419 5412 5404 5401 5395 5389 5383 5382 5374 5363 5352 5342 5335 5336 5339 5339 5335 5328 5322 5316 5310 5308 5303 5289 5288
5333 5340 5348 5355 5362 5375 5384 5385 5387 5392 5403 5403 5411 5410 5409 5411 5416 5410 5405 5396 5391 5385 5379 5373 5366 5365 5360 5347 5338 5332 5325 5320 5321 5322 5313 5306 5302 5299 5294 5289 5284 5276 5272
5305 5308 5319 5332 5343 5353 5362 5370 5372 5374 5377 5388 5387 5386 5387 5395 5398 5397 5392 5381 5371 5369 5368 5359 5352 5348 5340 5333 5327 5318 5313 5309 5299 5296 5289 5285 5282 5280 5278 5272 5267 5262 5259
5269 5283 5295 5302 5313 5335 5342 5348 5356 5359 5358 5362 5369 5372 5372 5376 5375 5379 5379 5370 5361 5356 5352 5342 5337 5331 5323 5319 5313 5307 5302 5288 5287 5276 5273 5269 5266 5264 5262 5257 5251 5247 5241
5235 5247 5264 5278 5294 5311 5322 5330 5336 5348 5348 5348 5350 5359 5362 5359 5357 5361 5364 5361 5355 5343 5335 5323 5317 5314 5315 5302 5298 5290 5282 5278 5272 5267 5259 5254 5249 5246 5242 5236 5233 5228 5227
5205 5222 5238 5253 5270 5290 5305 5314 5321 5334 5341 5341 5344 5342 5346 5348 5351 5347 5348 5347 5342 5334 5322 5310 5302 5296 5293 5285 5277 5268 5264 5256 5254 5247 5241 5236 5231 5226 5221 5217 5214 5210 5206
5182 5196 5211 5224 5241 5261 5279 5297 5306 5317 5325 5329 5331 5333 5335 5337 5337 5333 5332 5327 5321 5320 5308 5298 5285 5278 5273 5267 5253 5245 5242 5239 5236 5227 5222 5217 5216 5208 5199 5193 5190 5186 5189
5151 5168 5182 5195 5211 5229 5246 5272 5286 5294 5304 5311 5319 5317 5321 5323 5322 5319 5316 5312 5305 5298 5294 5284 5266 5258 5254 5250 5242 5232 5228 5222 5213 5209 5202 5199 5196 5191 5184 5177 5170 5169 5172
5131 5143 5154 5167 5180 5197 5214 5236 5255 5263 5274 5291 5303 5300 5303 5304 5303 5300 5300 5291 5288 5286 5273 5264 5251 5244 5236 5232 5227 5217 5209 5204 5193 5187 5181 5175 5173 5171 5165 5162 5157 5155 5155
5117 5128 5139 5153 5165 5177 5193 5210 5232 5240 5255 5265 5268 5276 5287 5284 5280 5281 5283 5279 5277 5267 5253 5241 5229 5217 5212 5208 5204 5198 5190 5182 5176 5169 5161 5157 5153 5146 5144 5144 5144 5143 5138
5109 5120 5129 5140 5152 5164 5177 5195 5210 5214 5221 5232 5244 5253 5254 5254 5256 5258 5261 5256 5243 5239 5225 5213 5205 5194 5186 5182 5178 5171 5166 5161 5159 5154 5148 5143 5139 5133 5132 5133 5130 5129 5127
5105 5117 5130 5141 5153 5165 5175 5189 5196 5199 5203 5210 5218 5223 5228 5231 5231 5234 5230 5218 5209 5199 5194 5189 5180 5172 5163 5158 5155 5149 5146 5146 5145 5140 5134 5129 5126 5123 5124 5123 5119 5119 5121
5113 5129 5142 5153 5162 5170 5181 5184 5187 5189 5193 5199 5204 5208 5211 5206 5199 5193 5187 5182 5177 5169 5166 5163 5154 5151 5143 5142 5139 5132 5130 5128 5124 5122 5120 5116 5118 5118 5116 5114 5112 5111 5106
5124 5140 5158 5166 5170 5175 5178 5181 5183 5186 5189 5192 5193 5190 5179 5174 5167 5161 5157 5153 5150 5143 5139 5137 5134 5131 5126 5124 5122 5121 5119 5114 5115 5112 5109 5110 5109 5107 5106 5105 5103 5101 5095
5127 5139 5151 5159 5164 5167 5169 5168 5170 5174 5176 5168 5165 5161 5157 5153 5148 5141 5137 5133 5129 5121 5118 5117 5115 5113 5109 5111 5114 5112 5107 5105 5103 5103 5104 5103 5099 5099 5099 5098 5093 5087 5081
5121 5129 5136 5142 5146 5148 5151 5154 5154 5150 5150 5148 5146 5144 5140 5135 5131 5125 5122 5115 5107 5103 5099 5097 5098 5102 5105 5105 5101 5098 5097 5098 5099 5100 5098 5095 5094 5094 5092 5086 5079 5074 5069
5113 5120 5125 5129 5131 5134 5135 5135 5133 5132 5131 5129 5128 5125 5122 5118 5113 5108 5102 5097 5092 5089 5090 5092 5094 5094 5093 5092 5091 5092 5093 5095 5095 5095 5094 5092 5092 5089 5081 5073 5066 5061 5057